Regional Weather Roundup
Issued by NWS

Home | Current Version | Previous Version | Text Only | Print | Product List | Glossary Off
Versions: 1 2 3 4 5 6 7 8 9 10 11 12 13 14 15 16 17 18 19 20 21 22 23 24 25 26 27 28

000
ASUS45 KTFX 222310
RWRMT
MONTANA REGIONAL WEATHER ROUNDUP
NATIONAL WEATHER SERVICE GREAT FALLS MT
500 PM MDT MON AUG 22 2016

NOTE: "FAIR" INDICATES FEW OR NO CLOUDS BELOW 12000 FEET WITH NO
SIGNIFICANT WEATHER AND/OR OBSTRUCTIONS TO VISIBILITY.

MTZ001>007-043-230000-
WEST OF THE DIVIDE

CITY           SKY/WX    TMP DP  RH WIND       PRES   REMARKS
KALISPELL      PTSUNNY   72  29  20 W10G33    29.85R
MISSOULA       PTSUNNY   74  28  18 W18G25    29.92R
BUTTE          SUNNY     76  16  10 NW20G25   29.88F
MULLAN PASS    PTSUNNY   56  32  40 CALM      30.04S
DEER LODGE       N/A     75  14   9 NW15G30   29.89S
EUREKA           N/A     72  30  21 SW16G25   29.86R
HAMILTON         N/A     73  18  12 SW16G22   29.90R
LIBBY            N/A     70  28  21 SW10G18   29.91R
PLAINS           N/A     73  33  23 SW18      29.92S
$$

MTZ008-052>055-230000-
SOUTHWEST MONTANA

CITY           SKY/WX    TMP DP  RH WIND       PRES   REMARKS
BOZEMAN        SUNNY     83  35  18 NW14G29   29.76S
DILLON         CLOUDY    81  22  11 SW23G30   29.81F
W YELLOWSTONE  SUNNY     77  14   9 SW23G33   29.98S
ENNIS          SUNNY     84   1   4 W25       29.88S
THREE FORKS      N/A     86  86 100 W9        29.78S HX 112
TWIN BRIDGES     N/A     83  27  13 SW12      29.82F
$$

MTZ009-010-012-014-046-048-049-054-230000-
EAST SLOPES AND CENTRAL MONTANA

CITY           SKY/WX    TMP DP  RH WIND       PRES   REMARKS
CUT BANK       SUNNY     70  25  18 W33G47    29.78R
GREAT FALLS    MOSUNNY   76  19  11 SW24G36   29.77R
MALMSTROM AFB  SUNNY     77  22  13 W22G31    29.77R
HELENA         SUNNY     83  18   9 NW18G28   29.81S
CHOTEAU          N/A     75  25  15 W21G29    29.81R
CONRAD           N/A     75  30  19 SW20      29.83R
$$

MTZ011-013-016-021-045-047-050-051-230000-
NORTH CENTRAL MONTANA

CITY           SKY/WX    TMP DP  RH WIND       PRES   REMARKS
HAVRE          CLOUDY    80  23  12 NW23G33   29.68R
LEWISTOWN      MOSUNNY   82  27  13 NW16G30   29.76S
N BAR RANCH      N/A     77  28  16 NW13G22   29.80R
CHINOOK          N/A     81  27  13 W17G23    29.66R
$$

MTZ017>020-022>027-061-062-230000-
NORTHEAST MONTANA

CITY           SKY/WX    TMP DP  RH WIND       PRES   REMARKS
GLASGOW        SUNNY     88  31  13 W15G24    29.62R
JORDAN           N/A     93  29  10 N14G24    29.64S
SIDNEY         CLOUDY    95  31  10 NW12      29.58R
WOLF POINT     SUNNY     96  31  10 NW15G22   29.60R HX  90
PLENTYWOOD       N/A     93  28  10 W10G20    29.59S
SCOBEY           N/A     89  33  13 W13       29.65R
$$

MTZ028>42-056>058-230000-
SOUTHCENTRAL AND SOUTHEAST MONTANA

CITY           SKY/WX    TMP DP  RH WIND       PRES   REMARKS
BAKER          SUNNY     92  43  18 W7        29.65S
BILLINGS       MOSUNNY   91  26   9 W3        29.68F
LIVINGSTON     CLOUDY    85  20   9 W18       29.76R
MILES CITY     CLOUDY    93  40  15 SW9       29.62S
EKALAKA          N/A     90  42  18 NW5       29.71S
FORSYTH          N/A     91  36  14 CALM      29.64F
LAUREL           N/A     90  32  12 N3        29.70F
ROUNDUP          N/A     92  30  11 W7        29.63S
$$

REGIONAL REPORTS...DAKOTAS

CITY           SKY/WX    TMP DP  RH WIND       PRES   REMARKS
WILLISTON      SUNNY     97  32  10 W15       29.57S HX  91
MINOT          SUNNY     94  54  25 SE13      29.58S HX  92
DICKINSON      SUNNY     94  44  17 S10       29.59S HX  90
CROSBY           N/A     93  37  14 W10       29.58R
BISMARCK       SUNNY     89  69  51 SE12      29.59F HX  93
GRAND FORKS    MOSUNNY   84  66  54 S13       29.65F
FARGO          SUNNY     83  67  58 SE14G24   29.68S
BUFFALO SD       N/A     93  49  22 NW12      29.60R HX  90
RAPID CITY     SUNNY     98  30   9 W10       29.67R HX  92
$$

REGIONAL REPORTS...WYOMING/IDAHO/WASHINGTON

CITY           SKY/WX    TMP DP  RH WIND       PRES   REMARKS
GILLETTE       SUNNY     91  31  11 N16G22    29.74R
SHERIDAN       SUNNY     93  28  10 NE6       29.72F
BUFFALO WY     SUNNY     91  25   9 NE7       29.81S
CODY           SUNNY     86  28  12 SW10      29.80S
YELLOWSTONE LA   N/A     71   7   8 SW12G25   30.10S
IDAHO FALLS    CLOUDY    84  25  11 S26G36    29.90F
SALMON         SUNNY     84  27  12 SW12G21   29.78S
BOISE          SUNNY     84  28  13 N9        29.90F
SPOKANE        MOSUNNY   74  30  19 SW15G21   29.93F
$$

REGIONAL REPORTS...ALBERTA

CITY           SKY/WX    TMP DP  RH WIND       PRES   REMARKS
EDMONTON       CLOUDY    57  52  82 NE6       29.49R
CALGARY        LGT RAIN  50  41  71 W21G38    29.65R
LETHBRIDGE     MOSUNNY   72  27  18 W36G49    29.68R
MEDICINE HAT   MOSUNNY   75  32  20 SW22G36   29.63R
WATERTON GATE    N/A     64  28  25 SW22G37     N/A
CARDSTON         N/A     68  25  19 W16G29      N/A
MILK RIVER       N/A     72  27  18 W28G38      N/A
$$

REGIONAL REPORTS...SASKATCHEWAN

CITY           SKY/WX    TMP DP  RH WIND       PRES   REMARKS
SWIFT CURRENT  PTSUNNY   75  43  31 W10       29.64S
REGINA         PTSUNNY   82  43  24 NW13      29.58R SMOKE
SASKATOON      CLOUDY    75  55  50 W20       29.57R
CYPRESS HILLS    N/A     68  27  21 W16G26      N/A
VAL MARIE        N/A     84  21  10 NW14G20     N/A
ASSINIBOIA       N/A     64  48  55 SE12G18     N/A
$$




USA.gov is the U.S. government's official web portal to all federal, state and local government web resources and services.